Location: Demmingen
(48.6757°N, 10.4375°E)
Time: 07:51:02
(UTC+00:00)

SAR-Lupe-4 - Pass Details

Date: 23 May 2024
Orbit: 476 x 482 km, 98.1° (Epoch: 02 April)

Event Time Altitude Azimuth Distance (km) Brightness Sun altitude
Rises 02:09:19 0° 15° (NNE) 2,553 8.5 -10.5°
Reaches altitude 10° 02:11:24 10° 16° (NNE) 1,669 7.4 -10.3°
Maximum altitude 02:14:59 79° 104° (ESE) 496 3.6 -9.9°
Drops below altitude 10° 02:18:32 10° 191° (S) 1,653 5.7 -9.5°
Enters shadow 02:18:38 - 191° (SSW) 1,693 5.8 -9.5°
